BSAT-4A

Last updated on Sun Dec 14 2025 00:02:52 GMT+0000 (Coordinated Universal Time)

1 42951U 17059B 25346.83603005 -.00000338 00000+0 00000+0 0 9991 2 42951 0.0304 17.1591 0002434 326.8921 148.5436 1.00270593 29939
UTC large
Height (km)
Speed (km/s)
/
Latitude / Longitude
Inclination (degrees)
Orbital Period (minutes)
Azimuth
Elevation
Range (km)
Doppler Factor

Next 0 passes for location: London (51.5072 / 0.1276)

Sorry there are no passes over London.